Location: *
(33.3200°N, 8.3381°W)
Time: 13:12:40
(UTC+00:00)

ATLAS 2AS CENTAUR R/B - Pass Details

Date: 09 April 2020
Orbit: 931 x 1280 km, 63.7° (Epoch: 31 May)

Event Time Altitude Azimuth Distance (km) Brightness Sun altitude
Rises 19:58:13 0° 334° (NNW) 4,130 6.5 -12.6°
Reaches altitude 10° 20:01:11 10° 339° (NNW) 3,118 5.7 -13.2°
Maximum altitude 20:08:24 52° 55° (NE) 1,363 3.0 -14.6°
Enters shadow 20:12:56 21° 123° (ESE) 2,188 3.7 -15.5°
